Find Starlink 35328

NORAD ID: 65652 Int'l Des: 2025-211 Owner: SPXS Country: US Constellation: starlink operational
LEOCIRCULARRETROGRADESSO

当前视图

正在加载3D地球...

关于 Starlink 35328

正在加载描述...

即将过境

Passes for default location (London). Set your location on the main map for personalized predictions.

高度历史

Loading altitude history...

两行轨道根数

1 65652U 25211A 26151.06692161 .00005893 00000-0 41198-3 0 9992
2 65652 97.4248 194.7152 0003157 138.3562 221.7906 15.05661350 39431
Epoch: May 31, 2026 • Age: 10 hours

当前状态

高度 556.9 km
速度 7.58 km/s
星下点 -12.53°S, 140.98°E
发射日期 Sep 19, 2025
运行时间 0.6 years
类型 internet

技术详情

分类 Payload
质量 575.00 kg
干质量 530.00 kg
总质量 575.00 kg
长度 0.30 m
直径 4.10 m
跨度 29.00 m
形状 Box + pan
制造商 SPXS
平台类型 Starlink V2MO
阶段状态 In Orbit
所有者/国家 SPXS/US

Most Searched